sat.trackr.live / text

‹ back to catalog

STARLINK-32416

NORAD 61589 · 2024-187R

PAYLOAD ACTIVE UNKNOWN

§ Identity

Operator
Country
US
Launch date
2024-10-18
Launch site
AFETR
Launch vehicle
Mass (kg)
RCS (m²)

Purposes: comms

External: N2YO · Heavens-Above · Gunter

§ Orbital elements

Epoch: 2026-05-25T02:59:30.184224Z

Period
94.10 min
Inclination
53.1613°
Eccentricity
0.0001140
Mean motion
15.30218383 rev/d
Perigee alt
474.4 km
Apogee alt
475.9 km
Semi-major
6,853.3 km
B*
8.7817e-5
RAAN
54.5418°
Arg perigee
122.6990°
Mean anomaly
237.4121°
Rev number
9,100

§ Raw data

STARLINK-324161 61589U 24187R   26145.12465491  .00002244  00000+0  87817-4 0  99972 61589  53.1613  54.5418 0001140 122.6990 237.4121 15.30218383 91006

JSON: /api/v1/satellites/61589 · /tle

For live sub-satellite position, see the globe view (requires WebGL).

§ Visibility from observer

Set your observer location to see the next 7 days of passes ≥ 10°. The values pass through the URL so the page stays shareable.

No JS? Fill the form by hand. The geolocation button needs JavaScript.